COOK1: Arkansas River Nr Coolidge, KS

                                SHEF ID:       COOK1     ARKANSAS R NR COOLIDGE, KS
STATION TYPE:
Regulating: Stage = 8.00, Flow = 2050

PRECIP STAGE STAGE(2) RIV-FLOW WTR-TEMP CONDUCT BAT-LOAD
in ft ft cfs F umho/cm volt
Ccp-Rev Ccp-Rev Ccp-Rev Ccp-Rev Ccp-Rev Ccp-Rev Ccp-Rev
(America/Chicago)
06/24 00:00 0.00 2.61 2.71 63 75.63 5578 12.95
06/24 01:00 0.00 2.61 2.70 63 74.30 5600 12.95
06/24 02:00 0.00 2.59 2.69 62 73.22 5625 12.95
06/24 03:00 0.00 2.60 2.68 63 72.52 5650 12.89
06/24 04:00 0.00 2.59 2.70 62 71.80 5677 12.89
06/24 05:00 0.00 2.60 2.68 63 70.97 5702 12.89
06/24 06:00 0.00 2.58 2.69 61 70.16 5715 12.89
06/24 07:00 0.00 2.61 2.69 63 69.44 5724 12.83
06/24 08:00 0.00 2.60 2.70 63 69.30 5724 12.83
06/24 09:00 0.00 2.60 2.70 63 70.02 5722 12.89
06/24 10:00 0.00 2.59 2.70 62 71.80 5733 13.00
06/24 11:00 0.00 2.59 2.71 62 74.23 5719 13.36
06/24 12:00 0.00 2.59 2.71 62 76.96 5702 13.71
06/24 13:00 0.00 2.60 2.70 63 79.57 5701 13.71
06/24 14:00 0.00 2.59 2.71 62 82.17 5697 13.59
06/24 15:00 0.00 2.60 2.71 63 84.31 5692 13.59
06/24 16:00 0.00 2.61 2.71 63 85.86 5674 13.48
06/24 17:00 0.00 2.61 2.72 63 86.94 5650 13.42
06/24 18:00 0.00 2.60 2.70 63 86.83 5638 13.12
06/24 19:00 0.00 2.60 2.71 63 86.25 5616 13.18
06/24 20:00 0.00 2.59 2.70 62 83.93 5602 13.12
06/24 21:00 0.00 2.58 2.67 61 81.79 5603 13.12
06/24 22:00 0.00 2.57 2.68 60 79.70 5612 13.00
06/24 23:00 ---- ---- ---- ---- ---- ---- ----
Data processed at Tue 25Jun2024 04:30 GMT

Parsing this webpage?

Checkout our new Data API! CWMSDataAPI (CDA)

Timeseries IDs (TSIDs)

TSIDs used from left to right in the data table
COOL.Precip-Inc.Total.1Hour.1Hour.Ccp-Rev
COOL.Stage.Inst.1Hour.0.Ccp-Rev
COOL.Stage-Alt.Inst.1Hour.0.Ccp-Rev
COOL.Flow.Inst.1Hour.0.Ccp-Rev
COOL.Temp-Water.Inst.1Hour.0.Ccp-Rev
COOL.Cond.Inst.1Hour.0.Ccp-Rev
COOL.Volt-Battery Load.Inst.1Hour.0.Ccp-Rev

                            

All information presented herein is the property of the government of the United States of America and may be revised or deleted at any time without prior notice. Dissemination of this information without the expressed written consent of the Public Affairs Office, Tulsa District U.S. Army Corps of Engineers is strictly prohibited. These data are gathered electronically and, as presented, have NOT undergone any form of quality control. These data are NOT guaranteed to be valid or correct.